STARLINK-11617, 63184

Orbit data source: Space-Track

STARLINK-11617, 63184 is a payload satellite owned by SpaceX/Seattle (US) in LEO that was launched on Thu, 13 Mar 2025 UTC via an FALCON 9 launch vehicle from the Air Force Eastern Test Range (AFETR). Payload-class satellites include a variety of spacecraft equipped with specific instruments for various scientific and technological missions. These include communications satellites like Starlink; space stations such as the ISS; scientific satellites like the Hubble; Earth observation satellites from companies like Planet Labs, Umbra, and HawkEye 360; GPS; miniature CubeSats for education and research; and military/defense satellites.

Loading next visibility...
Identifier
63184, 2025-048B
Orbit
LEO
Country
Flag of USUS
Related business
Manufacturer
SpaceX/Seattle
Mission
Operational Commercial Communications
Bus & Motor
STARLINK V2MD, Unknown motor
Mass
960 kg wet, ~910 kg dry
Launch date (UTC)
2025-03-13 (1 year ago)
Launch vehicle
FALCON 9
Launch site
Air Force Eastern Test Range (AFETR)
Object type
Payload
Rocket body
Debris
Shape & HBR
Box + 2 Pan, 18.1 m
Radar Cross Section
36.964 m², Large (>1 m²)

Expand to show TLE details & history
Last TLE update: 12 hours ago

TLE from 12 hours ago
0 STARLINK-11617
1 63184U 25048B   26171.40917799  .00187321  00000-0  14285-2 0  9998
2 63184  43.0014  60.9754 0001423 270.4437  89.6268 15.70876310 74675
Epoch: 2026-06-20T09:49Z
TLE epoch observation values (Epoch: 2026-06-20T09:49:12.978Z)
Latitude
0.00001°
Longitude
5.04712°
Altitude
356.156 km
Speed
7.697 km/s
True Right ascension
04h 03m 54s
True Declination
0° 00' 00"
Sunlit
Object was in daylight at epoch
Visualization orbit readout
Latitude
Unknown
Longitude
Unknown
Altitude
Unknown
Speed
Unknown
Apparent Right ascension
Unknown
Apparent Declination
Unknown
Sunlit
N/A
Visualization observer readout
Local Sidereal Time
08:41:53
Azimuth
Unknown
Elevation
Unknown
Doppler factor
Unknown
Orbital elements
Apogee altitude
359.331 km
Perigee altitude
357.414 km
Semi-major axis
6,736.51 km
Eccentricity
0.00014
Inclination
43.0014°
RAAN
60.9754°
Arg. of periapsis
270.4437°
True anomaly
89.64311°
Mean anomaly
89.6268°
Eccentric anomaly
89.63495°
Mean motion
3.92546 °/min
Orbital period
91.71 mins
BSTAR
0.0014285
Loading maneuver chart data...
Computing Atmospheric mass density...
Loading historical data...
Loading historical data...
Loading historical data...
Loading historical data...
Loading historical data...
Loading historical data...
Loading historical data...

Documentation

Showing up to 5 results
|